Regional Weather Roundup
Issued by NWS

Home | Current Version | Previous Version | Graphics & Text | Print | Product List | Glossary On
Versions: 1 2 3 4 5 6 7 8 9 10 11 12 13 14 15 16 17 18 19 20 21 22 23 24 25 26 27 28 29 30 31 32 33 34 35 36 37 38 39 40 41 42 43 44 45 46 47 48 49 50
453
ASUS43 KFSD 260702
RWRSD

WEATHER ROUNDUP FOR SOUTH DAKOTA
NATIONAL WEATHER SERVICE SIOUX FALLS SD
200 AM CDT MON JUN 26 2017

NOTE: "FAIR" INDICATES FEW OR NO CLOUDS BELOW 12,000 FEET WITH NO
SIGNIFICANT WEATHER AND/OR OBSTRUCTIONS TO VISIBILITY.


SDZ001>005-009-010-012>017-260800-
NORTHWEST AND NORTH CENTRAL SOUTH DAKOTA

CITY           SKY/WX    TMP DP  RH WIND       PRES   REMARKS
BUFFALO          N/A     54  40  59 E6        30.19S
FAITH            N/A     54  42  64 E9        30.23F
MOBRIDGE       CLEAR     53  44  71 E8        30.22R
$$

SDZ012>016-024>037-041>051-057-063-072>074-260800-
SOUTHWEST AND SOUTH CENTRAL SOUTH DAKOTA

CITY           SKY/WX    TMP DP  RH WIND       PRES   REMARKS
RAPID CTY ARPT CLEAR     48  36  63 CALM      30.27S
PIERRE         PTCLDY    49  44  83 NE7       30.21S
CUSTER         CLEAR     49  33  54 NE5       30.34R
ELLSWORTH AFB  CLEAR     57  38  48 SW5       30.27S
PHILIP         CLEAR     50  42  74 NE6       30.23R
PINE RIDGE     CLEAR     51  43  74 E8        30.24R
SPEARFISH      FAIR      46  37  71 E8        30.28F
WINNER         FAIR      55  45  68 NE8       30.20R
$$

SDZ004>011-016>023-039-040-260800-
NORTHEAST SOUTH DAKOTA

CITY           SKY/WX    TMP DP  RH WIND       PRES   REMARKS
ABERDEEN       CLEAR     49  45  86 NW3       30.23S
WATERTOWN      CLEAR     47  45  93 CALM      30.21S
BROOKINGS      CLEAR     49  46  90 CALM      30.22S
SISSETON         N/A     50  45  83 NW7       30.21R
$$

SDZ017-020-022-023-036>040-048>070-260800-
SOUTHEAST SOUTH DAKOTA

CITY           SKY/WX    TMP DP  RH WIND       PRES   REMARKS
SIOUX FALLS    MOCLDY    55  53  93 S5        30.20F
HURON          CLEAR     50  50 100 N3        30.22S
CHAMBERLAIN    PTCLDY    58  48  71 NE7       30.21R
MITCHELL       MOCLDY    57  51  80 E6        30.21F
YANKTON        MOCLDY    56  50  80 NE12      30.20R
$$

ABBREVIATIONS USED IN REMARKS
   TC - TEMPERATURE IN CELSIUS
  WCI - WIND CHILL INDEX
   HX - HEAT INDEX
  VSB - VISIBILITY





USA.gov is the U.S. government's official web portal to all federal, state and local government web resources and services.